Meteo Giornale » Osservazioni meteo Italia » Ronchi Dei Legionari

ore: 10:50 - Osservazioni Meteo Ronchi Dei Legionari
Lat. 45° 49' N Lon. 13° 29' E Alt. 12 metri s.l.m.

coperto_pioggia Europe/Rome

12 °C

Pioggia Debole

Temp. 24 Ore

11 °C

18 °C

Sud-Est

13 Km/h

Dew point 11 °C

Umidità 93 %

Visibilità  10 Km

Il sole sorge alle ore 06:59

Il sole tramonta alle ore 18:53

Data e Ora Cielo e Fenomeni T °C DP °C Um. % Pres. hPa Vis. km Vento km/h
Oggi h: 10:50 coperto_pioggia Pioggia Debole 12 11 93 1005 10 SE 13
Oggi h: 10:20 coperto_pioggia Pioggia Debole 13 12 93 1004 10 SE 14.8
Oggi h: 09:50 coperto_pioggia Pioggia 12 11 93 1004 10 S/SE 16.7
Oggi h: 09:20 coperto_pioggia Pioggia Debole 12 11 93 1003 10 SE 16.7
Oggi h: 08:50 coperto_pioggia Pioggia Debole 13 11 87 1002 10 SE 29.6
Oggi h: 08:20 coperto_pioggia Pioggia 12 11 93 1001 10 E 24
Oggi h: 07:50 coperto_pioggia Pioggia 12 10 87 1000 10 E/NE 14.8
Oggi h: 07:20 coperto_pioggia Pioggia 11 10 93 1000 10 NO 7.4
Oggi h: 06:50 coperto_pioggia Pioggia 11 10 93 1000 10 O 16.7
Oggi h: 06:20 coperto_pioggia Pioggia Debole 11 10 93 999 10 SO 11.1
Oggi h: 05:50 coperto_pioggia Pioggia Debole 11 10 93 999 10 NO 9.3
Oggi h: 05:20 coperto_pioggia Pioggia 11 10 93 999 10 N/NO 9.3
Oggi h: 04:50 coperto_pioggia Pioggia 11 10 93 999 10 N/NO 7.4
Oggi h: 04:20 coperto_pioggia Pioggia Debole 11 9 87 999 10 N/NO 16.7
Oggi h: 03:50 coperto_pioggia Pioggia 11 10 93 999 10 N/NO 14.8
Oggi h: 03:20 coperto_pioggia Pioggia Debole 11 10 93 999 10 N/NO 18.5
Oggi h: 02:50 coperto_pioggia Pioggia 11 10 93 1000 10 N/NO 22.2
Oggi h: 02:20 coperto_pioggia Pioggia 11 9 87 1001 10 N 24
Oggi h: 01:50 coperto_pioggia Pioggia 11 9 87 1001 10 N 20.3
Oggi h: 01:20 coperto_pioggia Pioggia 11 10 93 1001 9 N 16.7
Oggi h: 00:50 coperto_pioggia Pioggia 11 10 93 1002 10 N 11.1
Oggi h: 00:20 coperto_pioggia Pioggia 12 10 87 1002 10 N 13
Ieri h: 23:50 coperto_pioggia Pioggia 12 9 81 1002 10 N/NE 9.3
Ieri h: 23:20 coperto_pioggia Pioggia 12 10 87 1003 10 N 7.4
Ieri h: 22:50 coperto_pioggia Pioggia Debole 12 10 87 1004 10 N 5.5
Ieri h: 22:20 coperto_pioggia Pioggia Debole 12 10 87 1004 10 N 5.5
Ieri h: 21:50 coperto_pioggia Pioggia Debole 12 10 87 1005 10 N/NE 7.4
Ieri h: 21:20 coperto_pioggia Pioggia Debole 13 8 71 1005 10 E/NE 11.1
Ieri h: 20:50 coperto_pioggia Pioggia Debole 14 8 67 1006 10 E 16.7
Ieri h: 20:20 coperto_pioggia Pioggia Debole 14 8 67 1006 10 E 24
Ieri h: 19:50 coperto_pioggia Pioggia Debole 15 7 58 1006 10 E 22.2
Ieri h: 19:20 coperto_pioggia Pioggia Debole 15 7 58 1005 10 E 16.7
Ieri h: 18:50 coperto Coperto 15 8 62 1005 10 NE 9.3
Ieri h: 18:20 coperto Coperto 16 8 58 1006 10 E 9.3
Ieri h: 17:50 coperto Coperto 17 6 48 1006 10 E 11.1
Ieri h: 16:50 nuvoloso Nuvoloso 17 6 48 1005 10 E 16.7
Ieri h: 16:20 poco_nuvoloso Poco Nuvoloso 18 7 48 1006 10 SE 7.4
Ieri h: 15:50 nuvoloso Nuvoloso 18 7 48 1006 10 N 5.5
Ieri h: 15:20 molto_nuvoloso Molto Nuvoloso 18 7 48 1006 10 N 1.8
Ieri h: 14:50 molto_nuvoloso Molto Nuvoloso 17 6 48 1006 10 NE 7.4
Ieri h: 14:20 nuvoloso Nuvoloso 17 6 48 1006 10 N/NE 7.4
Ieri h: 13:50 nuvoloso Nuvoloso 17 5 45 1006 10 N 3.7
Ieri h: 13:20 molto_nuvoloso Molto Nuvoloso 17 6 48 1007 10 N 3.7
Ieri h: 12:50 molto_nuvoloso Molto Nuvoloso 17 5 45 1007 10 O 7.4
Ieri h: 12:20 nuvoloso Nuvoloso 17 5 45 1007 10 SO 7.4
Ieri h: 11:50 nuvoloso Nuvoloso 17 5 45 1007 10 S 7.4